EW2984 Weather Reports


Display with metric or nautical units.
time (UTC)temp
F
wind
direction
speed
MPH
gust
MPH
rain 1hr
in
rain 24hr
in
rain mn
in
humidity
%
barometer
mb
20260901160004 83 212 1.0 3.0 0.00 0.03 0.00 81 1015.6
20260901154500 81 200 0.0 2.0 0.00 0.03 0.00 83 1015.9
20260901153059 80 217 0.0 3.0 0.00 0.03 0.00 85 1016.0
20260901151606 80 228 0.0 3.0 0.00 0.03 0.00 86 1015.9
20260901150057 80 212 0.0 3.0 0.00 0.03 0.00 85 1016.0
20260901144556 80 244 0.0 1.0 0.00 0.03 0.00 86 1016.2
20260901143109 80 255 0.0 2.0 0.00 0.03 0.00 87 1016.2
20260901141556 80 215 0.0 2.0 0.00 0.03 0.00 86 1016.0
20260901140104 81 38 0.0 1.0 0.00 0.03 0.00 85 1016.0
20260901134550 79 224 0.0 2.0 0.00 0.03 0.00 87 1016.1
20260901133046 78 233 0.0 4.0 0.00 0.03 0.00 90 1016.2
20260901131542 76 231 0.0 1.0 0.00 0.03 0.00 92 1016.4
20260901130037 74 226 0.0 1.0 0.00 0.03 0.00 95 1016.5
20260901124536 74 216 0.0 1.0 0.00 0.03 0.00 96 1016.3
20260901123035 74 216 0.0 1.0 0.00 0.03 0.00 96 1016.5
20260901121547 74 215 0.0 1.0 0.00 0.03 0.00 96 1016.5
20260901120027 73 215 0.0 1.0 0.00 0.03 0.00 97 1016.6
20260901114524 72 206 0.0 0.0 0.00 0.03 0.00 98 1016.5
20260901113022 72 212 0.0 1.0 0.00 0.03 0.00 99 1016.4
20260901111522 71 223 0.0 0.0 0.00 0.03 0.00 99 1016.3
20260901110029 71 223 0.0 0.0 0.00 0.03 0.00 99 1016.4
20260901104522 71 224 0.0 0.0 0.00 0.03 0.00 99 1016.2
20260901103025 71 224 0.0 0.0 0.00 0.03 0.00 99 1016.2
20260901101525 71 224 0.0 0.0 0.00 0.03 0.00 99 1016.2
20260901100017 71 224 0.0 1.0 0.00 0.03 0.00 99 1016.1
20260901094517 71 224 0.0 0.0 0.00 0.03 0.00 99 1016.1
20260901093016 71 224 0.0 0.0 0.00 0.03 0.00 99 1016.2
20260901091515 71 224 0.0 0.0 0.00 0.03 0.00 99 1016.2
20260901090016 71 224 0.0 0.0 0.00 0.03 0.00 99 1016.4
20260901084513 71 224 0.0 0.0 0.00 0.03 0.00 99 1016.5
20260901083014 71 224 0.0 0.0 0.00 0.03 0.00 99 1016.6
20260901081517 71 224 0.0 0.0 0.00 0.03 0.00 99 1016.6
20260901080011 71 224 0.0 0.0 0.00 0.03 0.00 99 1016.6
20260901074509 71 224 0.0 0.0 0.00 0.03 0.00 99 1016.6
20260901073009 71 208 0.0 0.0 0.00 0.03 0.00 98 1016.3
20260901071515 71 208 0.0 0.0 0.00 0.03 0.00 98 1016.4
20260901070005 71 208 0.0 0.0 0.00 0.03 0.00 98 1016.6
20260901064504 71 208 0.0 0.0 0.00 0.03 0.00 98 1016.8
20260901063003 71 212 0.0 0.0 0.00 0.03 0.00 98 1016.8
20260901061505 71 212 0.0 0.0 0.00 0.03 0.00 98 1017.0
20260901054607 72 212 0.0 0.0 0.00 0.03 0.00 98 1017.2
20260901053114 72 212 0.0 1.0 0.00 0.03 0.00 98 1017.3
20260901051604 72 212 0.0 0.0 0.00 0.03 0.00 98 1017.4
20260901050100 72 213 0.0 0.0 0.00 0.03 0.00 98 1017.4
20260901044617 71 148 0.0 0.0 0.00 0.03 0.00 98 1017.5
20260901043053 71 148 0.0 0.0 0.00 0.03 0.00 97 1017.6
20260901041551 72 148 0.0 0.0 0.00 0.03 0.00 97 1017.6
20260901040049 72 131 0.0 0.0 0.00 0.03 0.00 97 1017.7
20260901034548 72 132 0.0 0.0 0.01 0.03 0.03 97 1017.8
20260901033048 72 132 0.0 0.0 0.03 0.03 0.03 96 1017.8
20260901031550 73 132 0.0 1.0 0.03 0.03 0.03 96 1017.9
20260901030051 73 131 0.0 0.0 0.03 0.03 0.03 95 1018.1
20260901024547 74 131 0.0 1.0 0.02 0.02 0.02 92 1018.2
20260901023046 74 131 0.0 0.0 0.00 0.00 0.00 90 1018.3
20260901021546 75 131 0.0 0.0 0.00 0.00 0.00 90 1018.2
20260901020045 75 131 0.0 1.0 0.00 0.00 0.00 90 1018.1
20260901014544 74 133 0.0 0.0 0.00 0.00 0.00 90 1018.1
20260901013045 75 133 0.0 0.0 0.00 0.00 0.00 89 1017.9
20260901011544 75 134 0.0 1.0 0.00 0.00 0.00 89 1017.8
20260901010043 75 122 0.0 1.0 0.00 0.00 0.00 89 1017.5
20260901004544 75 149 0.0 1.0 0.00 0.00 0.00 89 1017.7
20260901003042 75 262 0.0 0.0 0.00 0.00 0.00 89 1017.6
20260901001544 76 262 0.0 0.0 0.00 0.00 0.00 88 1017.5
20260901000045 77 262 0.0 0.0 0.00 0.00 0.00 86 1017.4
20260831234540 77 262 0.0 0.0 0.00 0.00 0.00 85 1017.3
20260831233039 78 262 0.0 1.0 0.00 0.00 0.00 83 1017.5
20260831231539 79 127 0.0 0.0 0.00 0.00 0.00 81 1017.5
20260831230044 79 222 0.0 2.0 0.00 0.00 0.00 81 1017.5
20260831224538 80 225 0.0 3.0 0.00 0.00 0.00 80 1017.6
20260831223034 80 217 0.0 2.0 0.00 0.00 0.00 79 1017.8
20260831221536 80 218 0.0 2.0 0.00 0.00 0.00 80 1017.8
20260831220033 80 203 0.0 1.0 0.00 0.00 0.00 79 1018.0
20260831214552 81 262 0.0 1.0 0.00 0.00 0.00 78 1018.0
20260831213028 82 213 0.0 1.0 0.00 0.00 0.00 76 1018.1
20260831211528 81 147 0.0 1.0 0.00 0.00 0.00 77 1018.2
20260831210029 80 145 0.0 1.0 0.00 0.00 0.00 77 1018.4
20260831204526 80 141 0.0 0.0 0.00 0.00 0.00 78 1018.4
20260831203025 81 229 0.0 0.0 0.00 0.00 0.00 77 1018.5
20260831201530 81 229 0.0 2.0 0.00 0.00 0.00 75 1018.6
20260831200036 81 114 0.0 1.0 0.00 0.00 0.00 75 1018.5
20260831194520 81 106 0.0 2.0 0.00 0.00 0.00 74 1018.6
20260831193020 81 226 0.0 1.0 0.00 0.00 0.00 75 1018.9
20260831191523 82 150 0.0 1.0 0.00 0.00 0.00 73 1019.1
20260831190019 81 118 0.0 1.0 0.00 0.00 0.00 74 1019.1
20260831184520 81 225 0.0 2.0 0.00 0.00 0.00 75 1019.2
20260831183014 80 211 0.0 1.0 0.00 0.00 0.00 75 1019.2
20260831181514 81 231 0.0 1.0 0.00 0.00 0.00 75 1019.3
20260831180013 81 217 0.0 2.0 0.00 0.00 0.00 73 1019.3
20260831174512 81 233 0.0 1.0 0.00 0.00 0.00 74 1019.4
20260831173012 80 87 0.0 4.0 0.00 0.00 0.00 72 1019.5
20260831171510 80 130 0.0 1.0 0.00 0.00 0.00 72 1019.6
20260831170010 80 274 0.0 3.0 0.00 0.00 0.00 71 1019.8
20260831164507 79 165 0.0 3.0 0.00 0.00 0.00 74 1019.7
20260831163014 79 127 0.0 3.0 0.00 0.00 0.00 74 1019.8
20260831161506 79 53 0.0 3.0 0.00 0.00 0.00 78 1019.8